contact:dominique.lefevre@mio.osupytheas.fr, maurice.libes@osupytheas.fr, didier.mallarino@osupytheas.fr
Project:EMSO http://www.emso-fr.org/EMSO-France
Depth: 2436.0 m
Title:EMSO Ligure Ouest : Data MII capteur MICROCAT
DateTime_Computer,Latitude,Longitude,Temperature,Conductivity,Pressure,DateTime_Instrument
DateTime_Computer,Latitude,Longitude,degC,S m-1,dbar,DateTime_Instrument
2021-05-25T00:00:28Z,42.805,6.029,13.2986,4.59990,2470.32,2021-5-25T02:01:40Z
2021-05-25T00:03:31Z,42.805,6.029,13.2985,4.59991,2470.297,2021-5-25T02:04:43Z
2021-05-25T00:06:34Z,42.805,6.029,13.2987,4.59991,2470.334,2021-5-25T02:07:46Z
2021-05-25T00:09:37Z,42.805,6.029,13.2984,4.59991,2470.343,2021-5-25T02:10:49Z
2021-05-25T00:12:41Z,42.805,6.029,13.2984,4.59992,2470.31,2021-5-25T02:13:52Z
2021-05-25T00:15:44Z,42.805,6.029,13.2983,4.59991,2470.297,2021-5-25T02:16:55Z
2021-05-25T00:18:47Z,42.805,6.029,13.2989,4.59990,2470.297,2021-5-25T02:19:59Z
2021-05-25T00:21:50Z,42.805,6.029,13.2985,4.59991,2470.32,2021-5-25T02:23:02Z
2021-05-25T00:24:53Z,42.805,6.029,13.2988,4.59991,2470.33,2021-5-25T02:26:05Z
2021-05-25T00:27:56Z,42.805,6.029,13.2987,4.59991,2470.334,2021-5-25T02:29:08Z
2021-05-25T00:30:59Z,42.805,6.029,13.2984,4.59991,2470.297,2021-5-25T02:32:11Z
2021-05-25T00:34:02Z,42.805,6.029,13.2984,4.59991,2470.31,2021-5-25T02:35:14Z
2021-05-25T00:37:05Z,42.805,6.029,13.2984,4.59991,2470.31,2021-5-25T02:38:17Z
2021-05-25T00:40:09Z,42.805,6.029,13.2986,4.59991,2470.343,2021-5-25T02:41:20Z
2021-05-25T00:43:12Z,42.805,6.029,13.2985,4.59991,2470.297,2021-5-25T02:44:24Z
2021-05-25T00:46:15Z,42.805,6.029,13.2984,4.59990,2470.334,2021-5-25T02:47:27Z
2021-05-25T00:49:18Z,42.805,6.029,13.2988,4.59991,2470.273,2021-5-25T02:50:30Z
2021-05-25T00:52:21Z,42.805,6.029,13.2986,4.59992,2470.32,2021-5-25T02:53:33Z
2021-05-25T00:55:24Z,42.805,6.029,13.2987,4.59994,2470.334,2021-5-25T02:56:36Z
2021-05-25T00:58:27Z,42.805,6.029,13.2986,4.59991,2470.334,2021-5-25T02:59:39Z
2021-05-25T01:01:30Z,42.805,6.029,13.2990,4.59990,2470.343,2021-5-25T03:02:42Z
2021-05-25T01:04:34Z,42.805,6.029,13.2986,4.59990,2470.32,2021-5-25T03:05:45Z
2021-05-25T01:07:37Z,42.805,6.029,13.2985,4.59991,2470.297,2021-5-25T03:08:49Z
2021-05-25T01:10:40Z,42.805,6.029,13.2982,4.59992,2470.306,2021-5-25T03:11:52Z
2021-05-25T01:13:43Z,42.805,6.029,13.2989,4.59990,2470.283,2021-5-25T03:14:55Z
2021-05-25T01:16:46Z,42.805,6.029,13.2985,4.59991,2470.32,2021-5-25T03:17:58Z
2021-05-25T01:19:49Z,42.805,6.029,13.2985,4.59990,2470.343,2021-5-25T03:21:01Z
2021-05-25T01:22:52Z,42.805,6.029,13.2987,4.59992,2470.297,2021-5-25T03:24:04Z
2021-05-25T01:25:55Z,42.805,6.029,13.2986,4.59992,2470.32,2021-5-25T03:27:07Z
2021-05-25T01:28:59Z,42.805,6.029,13.2991,4.59992,2470.32,2021-5-25T03:30:10Z
2021-05-25T01:32:02Z,42.805,6.029,13.2986,4.59991,2470.366,2021-5-25T03:33:14Z
2021-05-25T01:35:05Z,42.805,6.029,13.2985,4.59991,2470.32,2021-5-25T03:36:17Z
2021-05-25T01:38:08Z,42.805,6.029,13.2983,4.59991,2470.343,2021-5-25T03:39:20Z
2021-05-25T01:41:11Z,42.805,6.029,13.2986,4.59991,2470.334,2021-5-25T03:42:23Z
2021-05-25T01:44:14Z,42.805,6.029,13.2986,4.59992,2470.357,2021-5-25T03:45:26Z
2021-05-25T01:47:17Z,42.805,6.029,13.2988,4.59991,2470.343,2021-5-25T03:48:29Z
2021-05-25T01:50:20Z,42.805,6.029,13.2985,4.59991,2470.32,2021-5-25T03:51:32Z
2021-05-25T01:53:24Z,42.805,6.029,13.2988,4.59992,2470.334,2021-5-25T03:54:35Z
2021-05-25T01:56:27Z,42.805,6.029,13.2986,4.59992,2470.343,2021-5-25T03:57:39Z
2021-05-25T01:59:30Z,42.805,6.029,13.2984,4.59991,2470.366,2021-5-25T04:00:42Z
2021-05-25T02:02:33Z,42.805,6.029,13.2988,4.59992,2470.343,2021-5-25T04:03:45Z
2021-05-25T02:05:36Z,42.805,6.029,13.2987,4.59991,2470.39,2021-5-25T04:06:48Z
2021-05-25T02:08:39Z,42.805,6.029,13.2984,4.59991,2470.343,2021-5-25T04:09:51Z
2021-05-25T02:11:42Z,42.805,6.029,13.2990,4.59991,2470.38,2021-5-25T04:12:54Z
2021-05-25T02:14:45Z,42.805,6.029,13.2986,4.59992,2470.38,2021-5-25T04:15:57Z
2021-05-25T02:17:49Z,42.805,6.029,13.2988,4.59991,2470.38,2021-5-25T04:19:00Z
2021-05-25T02:20:52Z,42.805,6.029,13.2986,4.59992,2470.343,2021-5-25T04:22:03Z
2021-05-25T02:23:55Z,42.805,6.029,13.2989,4.59990,2470.366,2021-5-25T04:25:07Z
2021-05-25T02:26:58Z,42.805,6.029,13.2987,4.59990,2470.357,2021-5-25T04:28:10Z
2021-05-25T02:30:01Z,42.805,6.029,13.2986,4.59991,2470.343,2021-5-25T04:31:13Z
2021-05-25T02:33:04Z,42.805,6.029,13.2983,4.59992,2470.366,2021-5-25T04:34:16Z
2021-05-25T02:36:07Z,42.805,6.029,13.2986,4.59991,2470.39,2021-5-25T04:37:19Z
2021-05-25T02:39:10Z,42.805,6.029,13.2986,4.59993,2470.343,2021-5-25T04:40:22Z
2021-05-25T02:42:14Z,42.805,6.029,13.2988,4.59991,2470.357,2021-5-25T04:43:25Z
2021-05-25T02:45:17Z,42.805,6.029,13.2988,4.59991,2470.39,2021-5-25T04:46:28Z
2021-05-25T02:48:20Z,42.805,6.029,13.2987,4.59994,2470.39,2021-5-25T04:49:32Z
2021-05-25T02:51:23Z,42.805,6.029,13.2985,4.59991,2470.366,2021-5-25T04:52:35Z
2021-05-25T02:54:26Z,42.805,6.029,13.2984,4.59991,2470.366,2021-5-25T04:55:38Z
2021-05-25T02:57:29Z,42.805,6.029,13.2984,4.59991,2470.39,2021-5-25T04:58:41Z
2021-05-25T03:00:32Z,42.805,6.029,13.2986,4.59992,2470.39,2021-5-25T05:01:44Z
2021-05-25T03:03:35Z,42.805,6.029,13.2987,4.59991,2470.39,2021-5-25T05:04:47Z
2021-05-25T03:06:39Z,42.805,6.029,13.2986,4.59992,2470.404,2021-5-25T05:07:50Z
2021-05-25T03:09:42Z,42.805,6.029,13.2986,4.59991,2470.404,2021-5-25T05:10:53Z
2021-05-25T03:12:45Z,42.805,6.029,13.2989,4.59992,2470.413,2021-5-25T05:13:57Z
2021-05-25T03:15:48Z,42.805,6.029,13.2984,4.59994,2470.413,2021-5-25T05:17:00Z
2021-05-25T03:18:51Z,42.805,6.029,13.2987,4.59991,2470.413,2021-5-25T05:20:03Z
2021-05-25T03:21:54Z,42.805,6.029,13.2986,4.59993,2470.46,2021-5-25T05:23:06Z
2021-05-25T03:24:57Z,42.805,6.029,13.2985,4.59994,2470.474,2021-5-25T05:26:09Z
2021-05-25T03:28:00Z,42.805,6.029,13.2991,4.59993,2470.413,2021-5-25T05:29:12Z
2021-05-25T03:31:04Z,42.805,6.029,13.2983,4.59992,2470.437,2021-5-25T05:32:15Z
2021-05-25T03:34:07Z,42.805,6.029,13.2988,4.59992,2470.437,2021-5-25T05:35:18Z
2021-05-25T03:37:10Z,42.805,6.029,13.2985,4.59993,2470.46,2021-5-25T05:38:22Z
2021-05-25T03:40:13Z,42.805,6.029,13.2984,4.59992,2470.474,2021-5-25T05:41:25Z
2021-05-25T03:43:16Z,42.805,6.029,13.2986,4.59992,2470.437,2021-5-25T05:44:28Z
2021-05-25T03:46:19Z,42.805,6.029,13.2986,4.59991,2470.46,2021-5-25T05:47:31Z
2021-05-25T03:49:22Z,42.805,6.029,13.2987,4.59993,2470.437,2021-5-25T05:50:34Z
2021-05-25T03:52:25Z,42.805,6.029,13.2987,4.59993,2470.413,2021-5-25T05:53:37Z
2021-05-25T03:55:29Z,42.805,6.029,13.2990,4.59993,2470.437,2021-5-25T05:56:40Z
2021-05-25T03:58:32Z,42.805,6.029,13.2988,4.59991,2470.437,2021-5-25T05:59:43Z
2021-05-25T04:01:35Z,42.805,6.029,13.2990,4.59991,2470.474,2021-5-25T06:02:47Z
2021-05-25T04:04:38Z,42.805,6.029,13.2985,4.59992,2470.46,2021-5-25T06:05:50Z
2021-05-25T04:07:41Z,42.805,6.029,13.2985,4.59995,2470.474,2021-5-25T06:08:53Z
2021-05-25T04:10:44Z,42.805,6.029,13.2985,4.59993,2470.45,2021-5-25T06:11:56Z
2021-05-25T04:13:47Z,42.805,6.029,13.2985,4.59992,2470.497,2021-5-25T06:14:59Z
2021-05-25T04:16:50Z,42.805,6.029,13.2987,4.59992,2470.46,2021-5-25T06:18:02Z
2021-05-25T04:19:53Z,42.805,6.029,13.2986,4.59992,2470.46,2021-5-25T06:21:05Z
2021-05-25T04:22:57Z,42.805,6.029,13.2985,4.59992,2470.45,2021-5-25T06:24:08Z
2021-05-25T04:26:00Z,42.805,6.029,13.2986,4.59994,2470.507,2021-5-25T06:27:12Z
2021-05-25T04:29:03Z,42.805,6.029,13.2986,4.59992,2470.53,2021-5-25T06:30:15Z
2021-05-25T04:32:06Z,42.805,6.029,13.2987,4.59993,2470.483,2021-5-25T06:33:18Z
2021-05-25T04:35:09Z,42.805,6.029,13.2989,4.59994,2470.497,2021-5-25T06:36:21Z
2021-05-25T04:38:12Z,42.805,6.029,13.2987,4.59992,2470.483,2021-5-25T06:39:24Z
2021-05-25T04:41:15Z,42.805,6.029,13.2986,4.59991,2470.483,2021-5-25T06:42:27Z
2021-05-25T04:44:18Z,42.805,6.029,13.2986,4.59991,2470.52,2021-5-25T06:45:30Z
2021-05-25T04:47:22Z,42.805,6.029,13.2987,4.59993,2470.474,2021-5-25T06:48:33Z
2021-05-25T04:50:25Z,42.805,6.029,13.2990,4.59996,2470.497,2021-5-25T06:51:37Z
2021-05-25T04:53:28Z,42.805,6.029,13.2988,4.59992,2470.483,2021-5-25T06:54:40Z
2021-05-25T04:56:31Z,42.805,6.029,13.2986,4.59995,2470.53,2021-5-25T06:57:43Z
2021-05-25T04:59:34Z,42.805,6.029,13.2986,4.59993,2470.53,2021-5-25T07:00:46Z
2021-05-25T05:02:37Z,42.805,6.029,13.2985,4.59994,2470.507,2021-5-25T07:03:49Z
2021-05-25T05:05:40Z,42.805,6.029,13.2990,4.59993,2470.507,2021-5-25T07:06:52Z
2021-05-25T05:08:43Z,42.805,6.029,13.2983,4.59991,2470.507,2021-5-25T07:09:55Z
2021-05-25T05:11:47Z,42.805,6.029,13.2983,4.59991,2470.497,2021-5-25T07:12:58Z
2021-05-25T05:14:50Z,42.805,6.029,13.2990,4.59993,2470.497,2021-5-25T07:16:01Z
2021-05-25T05:17:53Z,42.805,6.029,13.2986,4.59995,2470.507,2021-5-25T07:19:05Z
2021-05-25T05:20:56Z,42.805,6.029,13.2987,4.59993,2470.507,2021-5-25T07:22:08Z
2021-05-25T05:23:59Z,42.805,6.029,13.2987,4.59991,2470.483,2021-5-25T07:25:11Z
2021-05-25T05:27:02Z,42.805,6.029,13.2988,4.59992,2470.483,2021-5-25T07:28:14Z
2021-05-25T05:30:05Z,42.805,6.029,13.2983,4.59993,2470.46,2021-5-25T07:31:17Z
2021-05-25T05:33:08Z,42.805,6.029,13.2986,4.59992,2470.52,2021-5-25T07:34:20Z
2021-05-25T05:36:12Z,42.805,6.029,13.2986,4.59992,2470.544,2021-5-25T07:37:23Z
2021-05-25T05:39:15Z,42.805,6.029,13.2986,4.59993,2470.52,2021-5-25T07:40:26Z
2021-05-25T05:42:18Z,42.805,6.029,13.2982,4.59992,2470.53,2021-5-25T07:43:30Z
2021-05-25T05:45:21Z,42.805,6.029,13.2984,4.59993,2470.52,2021-5-25T07:46:33Z
2021-05-25T05:48:24Z,42.805,6.029,13.2989,4.59996,2470.507,2021-5-25T07:49:36Z
2021-05-25T05:51:27Z,42.805,6.029,13.2986,4.59992,2470.497,2021-5-25T07:52:39Z
2021-05-25T05:54:30Z,42.805,6.029,13.2984,4.59992,2470.507,2021-5-25T07:55:42Z
2021-05-25T05:57:33Z,42.805,6.029,13.2986,4.59992,2470.507,2021-5-25T07:58:45Z
2021-05-25T06:00:37Z,42.805,6.029,13.2982,4.59994,2470.53,2021-5-25T08:01:48Z
2021-05-25T06:03:40Z,42.805,6.029,13.2986,4.59992,2470.483,2021-5-25T08:04:51Z
2021-05-25T06:06:43Z,42.805,6.029,13.2986,4.59993,2470.507,2021-5-25T08:07:55Z
2021-05-25T06:09:46Z,42.805,6.029,13.2990,4.59992,2470.483,2021-5-25T08:10:58Z
2021-05-25T06:12:49Z,42.805,6.029,13.2987,4.59992,2470.507,2021-5-25T08:14:01Z
2021-05-25T06:15:52Z,42.805,6.029,13.2985,4.59994,2470.507,2021-5-25T08:17:04Z
2021-05-25T06:18:55Z,42.805,6.029,13.2986,4.59992,2470.507,2021-5-25T08:20:07Z
2021-05-25T06:21:58Z,42.805,6.029,13.2986,4.59993,2470.507,2021-5-25T08:23:10Z
2021-05-25T06:25:02Z,42.805,6.029,13.2986,4.59992,2470.483,2021-5-25T08:26:13Z
2021-05-25T06:28:05Z,42.805,6.029,13.2984,4.59994,2470.507,2021-5-25T08:29:16Z
2021-05-25T06:31:08Z,42.805,6.029,13.2989,4.59993,2470.53,2021-5-25T08:32:20Z
2021-05-25T06:34:11Z,42.805,6.029,13.2989,4.59993,2470.483,2021-5-25T08:35:23Z
2021-05-25T06:37:14Z,42.805,6.029,13.2986,4.59993,2470.483,2021-5-25T08:38:26Z
2021-05-25T06:40:17Z,42.805,6.029,13.2987,4.59994,2470.544,2021-5-25T08:41:29Z
2021-05-25T06:43:20Z,42.805,6.029,13.2983,4.59991,2470.507,2021-5-25T08:44:32Z
2021-05-25T06:46:23Z,42.805,6.029,13.2987,4.59993,2470.497,2021-5-25T08:47:35Z
2021-05-25T06:49:26Z,42.805,6.029,13.2985,4.59993,2470.46,2021-5-25T08:50:38Z
2021-05-25T06:52:30Z,42.805,6.029,13.2986,4.59993,2470.497,2021-5-25T08:53:41Z
2021-05-25T06:55:33Z,42.805,6.029,13.2983,4.59992,2470.52,2021-5-25T08:56:45Z
2021-05-25T06:58:36Z,42.805,6.029,13.2983,4.59993,2470.507,2021-5-25T08:59:48Z
2021-05-25T07:01:39Z,42.805,6.029,13.2986,4.59992,2470.474,2021-5-25T09:02:51Z
2021-05-25T07:04:42Z,42.805,6.029,13.2984,4.59994,2470.46,2021-5-25T09:05:54Z
2021-05-25T07:07:45Z,42.805,6.029,13.2987,4.59993,2470.493,2021-5-25T09:08:57Z
2021-05-25T07:10:48Z,42.805,6.029,13.2984,4.59992,2470.474,2021-5-25T09:12:00Z
2021-05-25T07:13:51Z,42.805,6.029,13.2988,4.59991,2470.497,2021-5-25T09:15:03Z
2021-05-25T07:16:55Z,42.805,6.029,13.2988,4.59993,2470.483,2021-5-25T09:18:06Z
2021-05-25T07:19:58Z,42.805,6.029,13.2987,4.59992,2470.52,2021-5-25T09:21:10Z
2021-05-25T07:23:01Z,42.805,6.029,13.2985,4.59991,2470.46,2021-5-25T09:24:13Z
2021-05-25T07:26:04Z,42.805,6.029,13.2984,4.59994,2470.497,2021-5-25T09:27:16Z
2021-05-25T07:29:07Z,42.805,6.029,13.2990,4.59994,2470.46,2021-5-25T09:30:19Z
2021-05-25T07:32:10Z,42.805,6.029,13.2988,4.59994,2470.46,2021-5-25T09:33:22Z
2021-05-25T07:35:13Z,42.805,6.029,13.2986,4.59993,2470.427,2021-5-25T09:36:25Z
2021-05-25T07:38:16Z,42.805,6.029,13.2984,4.59993,2470.413,2021-5-25T09:39:28Z
2021-05-25T07:41:20Z,42.805,6.029,13.2984,4.59991,2470.474,2021-5-25T09:42:31Z
2021-05-25T07:44:23Z,42.805,6.029,13.2985,4.59993,2470.46,2021-5-25T09:45:35Z
2021-05-25T07:47:26Z,42.805,6.029,13.2983,4.59992,2470.46,2021-5-25T09:48:38Z
2021-05-25T07:50:29Z,42.805,6.029,13.2989,4.59994,2470.46,2021-5-25T09:51:41Z
2021-05-25T07:53:32Z,42.805,6.029,13.2983,4.59991,2470.474,2021-5-25T09:54:44Z
2021-05-25T07:56:35Z,42.805,6.029,13.2985,4.59994,2470.427,2021-5-25T09:57:47Z
2021-05-25T07:59:38Z,42.805,6.029,13.2987,4.59991,2470.474,2021-5-25T10:00:50Z
2021-05-25T08:02:41Z,42.805,6.029,13.2985,4.59992,2470.45,2021-5-25T10:03:53Z
2021-05-25T08:05:45Z,42.805,6.029,13.2984,4.59994,2470.404,2021-5-25T10:06:56Z
2021-05-25T08:08:48Z,42.805,6.029,13.2983,4.59993,2470.45,2021-5-25T10:10:00Z
2021-05-25T08:11:51Z,42.805,6.029,13.2984,4.59992,2470.437,2021-5-25T10:13:03Z
2021-05-25T08:14:54Z,42.805,6.029,13.2985,4.59992,2470.474,2021-5-25T10:16:06Z
2021-05-25T08:17:57Z,42.805,6.029,13.2990,4.59994,2470.413,2021-5-25T10:19:09Z
2021-05-25T08:21:00Z,42.805,6.029,13.2983,4.59993,2470.413,2021-5-25T10:22:12Z
2021-05-25T08:24:03Z,42.805,6.029,13.2988,4.59992,2470.45,2021-5-25T10:25:15Z
2021-05-25T08:27:06Z,42.805,6.029,13.2986,4.59991,2470.413,2021-5-25T10:28:18Z
2021-05-25T08:30:10Z,42.805,6.029,13.2989,4.59992,2470.413,2021-5-25T10:31:21Z
2021-05-25T08:33:13Z,42.805,6.029,13.2986,4.59992,2470.45,2021-5-25T10:34:25Z
2021-05-25T08:36:16Z,42.805,6.029,13.2984,4.59991,2470.427,2021-5-25T10:37:28Z
2021-05-25T08:39:19Z,42.805,6.029,13.2986,4.59992,2470.404,2021-5-25T10:40:31Z
2021-05-25T08:42:22Z,42.805,6.029,13.2984,4.59992,2470.413,2021-5-25T10:43:34Z
2021-05-25T08:45:25Z,42.805,6.029,13.2986,4.59992,2470.404,2021-5-25T10:46:37Z
2021-05-25T08:48:28Z,42.805,6.029,13.2989,4.59994,2470.437,2021-5-25T10:49:40Z
2021-05-25T08:51:32Z,42.805,6.029,13.2987,4.59992,2470.427,2021-5-25T10:52:43Z
2021-05-25T08:54:35Z,42.805,6.029,13.2986,4.59991,2470.366,2021-5-25T10:55:46Z
2021-05-25T08:57:38Z,42.805,6.029,13.2985,4.59992,2470.39,2021-5-25T10:58:50Z
2021-05-25T09:00:41Z,42.805,6.029,13.2987,4.59991,2470.39,2021-5-25T11:01:53Z
2021-05-25T09:03:44Z,42.805,6.029,13.2989,4.59991,2470.366,2021-5-25T11:04:56Z
2021-05-25T09:06:47Z,42.805,6.029,13.2986,4.59991,2470.343,2021-5-25T11:07:59Z
2021-05-25T09:09:50Z,42.805,6.029,13.2983,4.59992,2470.39,2021-5-25T11:11:02Z
2021-05-25T09:12:53Z,42.805,6.029,13.2990,4.59993,2470.38,2021-5-25T11:14:05Z
2021-05-25T09:15:57Z,42.805,6.029,13.2988,4.59992,2470.343,2021-5-25T11:17:08Z
2021-05-25T09:19:00Z,42.805,6.029,13.2983,4.59991,2470.39,2021-5-25T11:20:11Z
2021-05-25T09:22:03Z,42.805,6.029,13.2988,4.59991,2470.366,2021-5-25T11:23:15Z
2021-05-25T09:25:06Z,42.805,6.029,13.2988,4.59991,2470.39,2021-5-25T11:26:18Z
2021-05-25T09:28:09Z,42.805,6.029,13.2982,4.59991,2470.366,2021-5-25T11:29:21Z
2021-05-25T09:31:12Z,42.805,6.029,13.2986,4.59991,2470.413,2021-5-25T11:32:24Z
2021-05-25T09:34:15Z,42.805,6.029,13.2983,4.59993,2470.38,2021-5-25T11:35:27Z
2021-05-25T09:37:18Z,42.805,6.029,13.2983,4.59991,2470.343,2021-5-25T11:38:30Z
2021-05-25T09:40:22Z,42.805,6.029,13.2985,4.59992,2470.357,2021-5-25T11:41:33Z
2021-05-25T09:43:25Z,42.805,6.029,13.2989,4.59991,2470.366,2021-5-25T11:44:37Z
2021-05-25T09:46:28Z,42.805,6.029,13.2983,4.59991,2470.38,2021-5-25T11:47:40Z
2021-05-25T09:49:31Z,42.805,6.029,13.2986,4.59991,2470.39,2021-5-25T11:50:43Z
2021-05-25T09:52:34Z,42.805,6.029,13.2987,4.59994,2470.343,2021-5-25T11:53:46Z
2021-05-25T09:55:37Z,42.805,6.029,13.2990,4.59991,2470.357,2021-5-25T11:56:49Z
2021-05-25T09:58:40Z,42.805,6.029,13.2986,4.59991,2470.343,2021-5-25T11:59:52Z
2021-05-25T10:01:43Z,42.805,6.029,13.2986,4.59993,2470.334,2021-5-25T12:02:55Z
2021-05-25T10:04:47Z,42.805,6.029,13.2982,4.59991,2470.39,2021-5-25T12:05:58Z
2021-05-25T10:07:50Z,42.805,6.029,13.2983,4.59990,2470.38,2021-5-25T12:09:02Z
2021-05-25T10:10:53Z,42.805,6.029,13.2985,4.59991,2470.366,2021-5-25T12:12:05Z
2021-05-25T10:13:56Z,42.805,6.029,13.2984,4.59992,2470.343,2021-5-25T12:15:08Z
2021-05-25T10:16:59Z,42.805,6.029,13.2986,4.59991,2470.32,2021-5-25T12:18:11Z
2021-05-25T10:20:02Z,42.805,6.029,13.2987,4.59992,2470.32,2021-5-25T12:21:14Z
2021-05-25T10:23:05Z,42.805,6.029,13.2982,4.59991,2470.32,2021-5-25T12:24:17Z
2021-05-25T10:26:08Z,42.805,6.029,13.2988,4.59992,2470.297,2021-5-25T12:27:20Z
2021-05-25T10:29:12Z,42.805,6.029,13.2983,4.59991,2470.334,2021-5-25T12:30:23Z
2021-05-25T10:32:15Z,42.805,6.029,13.2988,4.59991,2470.31,2021-5-25T12:33:27Z
2021-05-25T10:35:18Z,42.805,6.029,13.2985,4.59990,2470.32,2021-5-25T12:36:30Z
2021-05-25T10:38:21Z,42.805,6.029,13.2983,4.59991,2470.297,2021-5-25T12:39:33Z
2021-05-25T10:41:24Z,42.805,6.029,13.2983,4.59991,2470.297,2021-5-25T12:42:36Z
2021-05-25T10:44:27Z,42.805,6.029,13.2988,4.59991,2470.31,2021-5-25T12:45:39Z
2021-05-25T10:47:30Z,42.805,6.029,13.2987,4.59992,2470.297,2021-5-25T12:48:42Z
2021-05-25T10:50:34Z,42.805,6.029,13.2987,4.59991,2470.32,2021-5-25T12:51:45Z
2021-05-25T10:53:37Z,42.805,6.029,13.2984,4.59994,2470.31,2021-5-25T12:54:48Z
2021-05-25T10:56:40Z,42.805,6.029,13.2986,4.59990,2470.334,2021-5-25T12:57:52Z
2021-05-25T10:59:43Z,42.805,6.029,13.2987,4.59991,2470.334,2021-5-25T13:00:55Z
2021-05-25T11:02:46Z,42.805,6.029,13.2989,4.59993,2470.32,2021-5-25T13:03:58Z
2021-05-25T11:05:49Z,42.805,6.029,13.2987,4.59992,2470.297,2021-5-25T13:07:01Z
2021-05-25T11:08:52Z,42.805,6.029,13.2990,4.59992,2470.273,2021-5-25T13:10:04Z
2021-05-25T11:11:55Z,42.805,6.029,13.2985,4.59991,2470.297,2021-5-25T13:13:07Z
2021-05-25T11:14:59Z,42.805,6.029,13.2984,4.59991,2470.297,2021-5-25T13:16:10Z
2021-05-25T11:18:02Z,42.805,6.029,13.2985,4.59991,2470.31,2021-5-25T13:19:13Z
2021-05-25T11:21:05Z,42.805,6.029,13.2986,4.59990,2470.287,2021-5-25T13:22:17Z
2021-05-25T11:24:08Z,42.805,6.029,13.2989,4.59991,2470.287,2021-5-25T13:25:20Z
2021-05-25T11:27:11Z,42.805,6.029,13.2985,4.59992,2470.31,2021-5-25T13:28:23Z
2021-05-25T11:30:14Z,42.805,6.029,13.2989,4.59991,2470.31,2021-5-25T13:31:26Z
2021-05-25T11:33:17Z,42.805,6.029,13.2988,4.59991,2470.31,2021-5-25T13:34:29Z
2021-05-25T11:36:20Z,42.805,6.029,13.2986,4.59991,2470.273,2021-5-25T13:37:32Z
2021-05-25T11:39:24Z,42.805,6.029,13.2987,4.59991,2470.297,2021-5-25T13:40:35Z
2021-05-25T11:42:27Z,42.805,6.029,13.2988,4.59991,2470.334,2021-5-25T13:43:39Z
2021-05-25T11:45:30Z,42.805,6.029,13.2985,4.59991,2470.297,2021-5-25T13:46:42Z
2021-05-25T11:48:33Z,42.805,6.029,13.2986,4.59991,2470.297,2021-5-25T13:49:45Z
2021-05-25T11:51:36Z,42.805,6.029,13.2990,4.59991,2470.273,2021-5-25T13:52:48Z
2021-05-25T11:54:39Z,42.805,6.029,13.2983,4.59992,2470.287,2021-5-25T13:55:51Z
2021-05-25T11:57:42Z,42.805,6.029,13.2990,4.59992,2470.31,2021-5-25T13:58:54Z
2021-05-25T12:00:45Z,42.805,6.029,13.2990,4.59992,2470.25,2021-5-25T14:01:57Z
2021-05-25T12:03:49Z,42.805,6.029,13.2989,4.59995,2470.31,2021-5-25T14:05:00Z
2021-05-25T12:06:52Z,42.805,6.029,13.2989,4.59993,2470.287,2021-5-25T14:08:04Z
2021-05-25T12:09:55Z,42.805,6.029,13.2991,4.59993,2470.264,2021-5-25T14:11:07Z
2021-05-25T12:12:58Z,42.805,6.029,13.2988,4.59994,2470.264,2021-5-25T14:14:10Z
2021-05-25T12:16:01Z,42.805,6.029,13.2991,4.59994,2470.25,2021-5-25T14:17:13Z
2021-05-25T12:19:04Z,42.805,6.029,13.2991,4.59995,2470.273,2021-5-25T14:20:16Z
2021-05-25T12:22:07Z,42.805,6.029,13.2989,4.59995,2470.273,2021-5-25T14:23:19Z
2021-05-25T12:25:10Z,42.805,6.029,13.2988,4.59995,2470.264,2021-5-25T14:26:22Z
2021-05-25T12:28:14Z,42.805,6.029,13.2992,4.59996,2470.25,2021-5-25T14:29:25Z
2021-05-25T12:31:17Z,42.805,6.029,13.2989,4.59994,2470.287,2021-5-25T14:32:29Z
2021-05-25T12:34:20Z,42.805,6.029,13.2991,4.59997,2470.264,2021-5-25T14:35:32Z
2021-05-25T12:37:23Z,42.805,6.029,13.2991,4.59996,2470.24,2021-5-25T14:38:35Z
2021-05-25T12:40:26Z,42.805,6.029,13.2993,4.59998,2470.227,2021-5-25T14:41:38Z
2021-05-25T12:43:29Z,42.805,6.029,13.2990,4.59998,2470.25,2021-5-25T14:44:41Z
2021-05-25T12:46:32Z,42.805,6.029,13.2996,4.60000,2470.227,2021-5-25T14:47:44Z
2021-05-25T12:49:36Z,42.805,6.029,13.2991,4.60000,2470.227,2021-5-25T14:50:47Z
2021-05-25T12:52:39Z,42.805,6.029,13.2997,4.60001,2470.24,2021-5-25T14:53:50Z
2021-05-25T12:55:42Z,42.805,6.029,13.2996,4.60002,2470.25,2021-5-25T14:56:54Z
2021-05-25T12:58:45Z,42.805,6.029,13.2994,4.60002,2470.264,2021-5-25T14:59:57Z
2021-05-25T13:01:48Z,42.805,6.029,13.2990,4.60003,2470.26,2021-5-25T15:03:00Z
2021-05-25T13:04:51Z,42.805,6.029,13.2996,4.60001,2470.227,2021-5-25T15:06:03Z
2021-05-25T13:07:54Z,42.805,6.029,13.2996,4.60001,2470.287,2021-5-25T15:09:06Z
2021-05-25T13:10:57Z,42.805,6.029,13.2993,4.60001,2470.287,2021-5-25T15:12:09Z
2021-05-25T13:14:01Z,42.805,6.029,13.2993,4.60001,2470.25,2021-5-25T15:15:12Z
2021-05-25T13:17:04Z,42.805,6.029,13.2998,4.60002,2470.25,2021-5-25T15:18:16Z
2021-05-25T13:20:07Z,42.805,6.029,13.3002,4.60002,2470.25,2021-5-25T15:21:19Z
2021-05-25T13:23:10Z,42.805,6.029,13.2994,4.60002,2470.25,2021-5-25T15:24:22Z
2021-05-25T13:26:13Z,42.805,6.029,13.2994,4.60000,2470.287,2021-5-25T15:27:25Z
2021-05-25T13:29:16Z,42.805,6.029,13.2993,4.60001,2470.227,2021-5-25T15:30:28Z
2021-05-25T13:32:19Z,42.805,6.029,13.2993,4.60000,2470.25,2021-5-25T15:33:31Z
2021-05-25T13:35:22Z,42.805,6.029,13.3000,4.60002,2470.273,2021-5-25T15:36:34Z
2021-05-25T13:38:26Z,42.805,6.029,13.2996,4.60001,2470.25,2021-5-25T15:39:37Z
2021-05-25T13:41:29Z,42.805,6.029,13.2996,4.60001,2470.25,2021-5-25T15:42:41Z
2021-05-25T13:44:32Z,42.805,6.029,13.2993,4.60001,2470.25,2021-5-25T15:45:44Z
2021-05-25T13:47:35Z,42.805,6.029,13.3001,4.60003,2470.273,2021-5-25T15:48:47Z
2021-05-25T13:50:38Z,42.805,6.029,13.3002,4.60003,2470.25,2021-5-25T15:51:50Z
2021-05-25T13:53:41Z,42.805,6.029,13.2997,4.60004,2470.273,2021-5-25T15:54:53Z
2021-05-25T13:56:44Z,42.805,6.029,13.3001,4.60005,2470.25,2021-5-25T15:57:56Z
2021-05-25T13:59:47Z,42.805,6.029,13.2998,4.60003,2470.273,2021-5-25T16:00:59Z
2021-05-25T14:02:51Z,42.805,6.029,13.3000,4.60004,2470.25,2021-5-25T16:04:02Z
2021-05-25T14:05:54Z,42.805,6.029,13.2998,4.60003,2470.31,2021-5-25T16:07:06Z
2021-05-25T14:08:57Z,42.805,6.029,13.3000,4.60003,2470.287,2021-5-25T16:10:09Z
2021-05-25T14:12:00Z,42.805,6.029,13.2996,4.60004,2470.31,2021-5-25T16:13:12Z
2021-05-25T14:15:03Z,42.805,6.029,13.2996,4.60002,2470.297,2021-5-25T16:16:15Z
2021-05-25T14:18:06Z,42.805,6.029,13.3001,4.60002,2470.31,2021-5-25T16:19:18Z
2021-05-25T14:21:09Z,42.805,6.029,13.2996,4.60001,2470.273,2021-5-25T16:22:21Z
2021-05-25T14:24:12Z,42.805,6.029,13.2994,4.60001,2470.297,2021-5-25T16:25:24Z
2021-05-25T14:27:16Z,42.805,6.029,13.2996,4.60001,2470.297,2021-5-25T16:28:27Z
2021-05-25T14:30:19Z,42.805,6.029,13.2996,4.60001,2470.297,2021-5-25T16:31:31Z
2021-05-25T14:33:22Z,42.805,6.029,13.3000,4.60003,2470.31,2021-5-25T16:34:34Z
2021-05-25T14:36:25Z,42.805,6.029,13.2997,4.60003,2470.297,2021-5-25T16:37:37Z
2021-05-25T14:39:28Z,42.805,6.029,13.2994,4.60002,2470.297,2021-5-25T16:40:40Z
2021-05-25T14:42:31Z,42.805,6.029,13.2994,4.60001,2470.297,2021-5-25T16:43:43Z
2021-05-25T14:45:34Z,42.805,6.029,13.2996,4.60002,2470.297,2021-5-25T16:46:46Z
2021-05-25T14:48:37Z,42.805,6.029,13.2991,4.60002,2470.297,2021-5-25T16:49:49Z
2021-05-25T14:51:41Z,42.805,6.029,13.2998,4.59988,2470.32,2021-5-25T16:52:52Z
2021-05-25T14:54:44Z,42.805,6.029,13.2993,4.60001,2470.357,2021-5-25T16:55:56Z
2021-05-25T14:57:47Z,42.805,6.029,13.3000,4.60002,2470.357,2021-5-25T16:58:59Z
2021-05-25T15:00:50Z,42.805,6.029,13.2996,4.60001,2470.32,2021-5-25T17:02:02Z
2021-05-25T15:03:53Z,42.805,6.029,13.2997,4.60001,2470.32,2021-5-25T17:05:05Z
2021-05-25T15:06:56Z,42.805,6.029,13.2993,4.60003,2470.32,2021-5-25T17:08:08Z
2021-05-25T15:09:59Z,42.805,6.029,13.2993,4.60001,2470.343,2021-5-25T17:11:11Z
2021-05-25T15:13:02Z,42.805,6.029,13.2996,4.60002,2470.334,2021-5-25T17:14:14Z